Independence Municipal Airport
Saturday 9:55 PM
Temperature36° (50°/27°)
Dew Point26°
Feels Like31°
Relative Humidity68
%
Visibility
0
mi
Pressure1020.7
mb
Wind DirectionNNE
20°
Wind Speed6
mph
Precipitation Today0.00"

Last 30 Observations

Time PresWx Temp DP Feels RH% Vsby Pressure Ceiling Direction Speed 1h Precip
9:35 PM 38° 27° 34°64
%
0
mi
1020.7
mb
N
10°
5
mph
0.00"
9:15 PM 36° 26° 33°68
%
0
mi
1021.0
mb
N
10°
3
mph
0.00"
8:55 PM 41° 25° 53
%
0
mi
1020.7
mb
Calm 0.00"
8:35 PM 40° 26° 37°55
%
0
mi
1020.7
mb
ENE
60°
5
mph
0.00"
8:15 PM 43° 24° 48
%
0
mi
1020.7
mb
Calm 0.00"
7:55 PM 43° 24° 41°48
%
0
mi
1020.7
mb
ENE
60°
3
mph
0.00"
7:35 PM 43° 26° 42°49
%
0
mi
1020.7
mb
NE
50°
3
mph
0.00"
7:15 PM 44° 25° 43°46
%
0
mi
1020.7
mb
NE
40°
3
mph
0.00"
6:55 PM 47° 25° 44°42
%
0
mi
1020.7
mb
NNE
30°
5
mph
0.00"
6:35 PM 48° 24° 45°38
%
10
mi
1020.3
mb
NNE
30°
6
mph
0.00"
6:15 PM 48° 24° 45°37
%
0
mi
1020.3
mb
ENE
60°
7
mph
0.00"
5:55 PM 49° 23° 46°36
%
0
mi
1020.3
mb
N
10°
7
mph
0.00"
5:35 PM 49° 23° 46°35
%
0
mi
1020.3
mb
NNE
30°
7
mph
0.00"
5:15 PM 49° 23° 45°36
%
0
mi
1020.0
mb
N
360°
9
mph
0.00"
4:55 PM 49° 24° 47°37
%
0
mi
1020.3
mb
ENE
60°
7
mph
0.00"
4:35 PM 49° 24° 36
%
0
mi
1020.3
mb
Calm 0.00"
4:15 PM 49° 24° 46°37
%
0
mi
1020.7
mb
N
360°
7
mph
0.00"
3:55 PM 49° 22° 44°35
%
0
mi
1021.0
mb
NNE
20°
10
mph
0.00"
3:35 PM 48° 25° 44°40
%
0
mi
1021.3
mb
ENE
60°
8
mph
0.00"
3:15 PM 48° 25° 44°41
%
0
mi
1021.7
mb
ENE
60°
7
mph
0.00"
2:55 PM 46° 25° 44°44
%
0
mi
1022.0
mb
N
360°
3
mph
0.00"
2:35 PM 45° 26° 42°46
%
0
mi
1022.0
mb
N
10°
6
mph
0.00"
2:15 PM 45° 25° 42°44
%
0
mi
1022.4
mb
N
10°
7
mph
0.00"
1:55 PM 44° 24° 39°45
%
0
mi
1022.7
mb
N
10°
9
mph
0.00"
1:35 PM 44° 26° 38°49
%
10
mi
1022.7
mb
N
360°
11
mph
0.00"
1:15 PM 42° 26° 37°51
%
0
mi
1023.4
mb
NNE
20°
9
mph
0.00"
12:55 PM 42° 26° 37°52
%
0
mi
1023.4
mb
N
360°
7
mph
0.00"
12:35 PM 42° 26° 37°54
%
10
mi
1023.4
mb
N
360°
7
mph
0.00"
12:15 PM 40° 27° 35°58
%
10
mi
1023.4
mb
NNW
340°
8
mph
0.00"
11:55 AM 38° 27° 30°62
%
10
mi
1023.4
mb
N
360°
13
mph
0.00"